SCP
0 0 0 0 0 0 0 0 0 0 0 0 0 0 0 0 0 0 0 0 0 0 0 0 0 0 0 0 0 0 0 0 0 0 0 0 0 0 0 0 0 0 0 0 0 0 0 0 0
0 0 0 0 0 0 0 0 0 0 0 0 0 0 0 0 0 0 0 0 0 0 0 0 0 0 0 0 0 0 0 0 0 0 0 0 0 0 0 0 0 0 0 0 0 0 0 0 0
0 0 0 0 0 0 0 0 0 0 0 0 0 0 0 0 0 0 0 0 0 0 0 0 0 0 0 0 0 0 0 0 0 0 0 0 0 0 0 0 0 0 0 0 0 0 0 0 0
0 0 0 0 0 0 0 0 0 0 0 0 0 0 0 0 0 0 0 0 0 0 0 0 0 0 0 0 0 0 0 0 0 0 0 0 0 0 0 0 0 0 0 0 0 0 0 0 0
0 0 0 0 0 0 0 0 0 0 0 0 0 0 0 0 0 0 0 0 0 0 0 0 0 0 0 0 0 0 0 0 0 0 0 0 0 0 0 0 0 0 0 0 0 0 0 0 0
0 0 0 0 0 0 0 0 0 0 0 0 0 0 0 0 0 0 0 0 0 0 0 0 0 0 0 0 0 0 0 0 0 0 0 0 0 0 0 0 0 0 0 0 0 0 0 0 0
0 0 0 0 0 0 0 0 0 0 0 0 0 0 0 0 0 0 0 0 0 0 0 0 0 0 0 0 0 0 0 0 0 0 0 0 0 0 0 0 0 0 0 0 0 0 0 0 0
0 0 0 0 0 0 0 0 0 0 0 0 0 0 0 0 0 0 0 0 0 0 0 0 0 0 0 0 0 0 0 0 0 0 0 0 0 0 0 0 0 0 0 0 0 0 0 0 0
0 0 0 0 0 0 0 0 0 0 0 0 0 0 0 0 0 0 0 0 0 0 0 0 0 0 0 0 0 0 0 0 0 0 0 0 0 0 0 0 0 0 0 0 0 0 0 0 0
0 0 0 0 0 0 0 0 0 0 0 0 0 0 0 0 0 0 0 0 0 0 0 0 0 0 0 0 0 0 0 0 0 0 0 0 0 0 0 0 0 0 0 0 0 0 0 0 0
0 0 0 0 0 0 0 0 0 0 0 0 0 0 0 0 0 0 0 0 0 0 0 0 0 0 0 0 0 0 0 0 0 0 0 0 0 0 0 0 0 0 0 0 0 0 0 0 0
0 0 0 0 0 0 0 0 0 0 0 0 0 0 0 0 0 0 0 0 0 0 0 0 0 0 0 0 0 0 0 0 0 0 0 0 0 0 0 0 0 0 0 0 0 0 0 0 0
0 0 0 0 0 0 0 0 0 0 0 0 0 0 0 0 0 0 0 0 0 0 0 0 0 0 0 0 0 0 0 0 0 0 0 0 0 0 0 0 0 0 0 0 0 0 0 0 0
0 0 0 0 0 0 0 0 0 0 0 0 0 0 0 0 0 0 0 0 0 0 0 0 0 0 0 0 0 0 0 0 0 0 0 0 0 0 0 0 0 0 0 0 0 0 0 0 0
0 0 0 0 0 0 0 0 0 0 0 0 0 0 0 0 0 0 0 0 0 0 0 0 0 0 0 0 0 0 0 0 0 0 0 0 0 0 0 0 0 0 0 0 0 0 0 0 0
0 0 0 0 0 0 0 0 0 0 0 0 0 0 0 0 0 0 0 0 0 0 0 0 0 0 0 0 0 0 0 0 0 0 0 0 0 0 0 0 0 0 0 0 0 0 0 0 0
0 0 0 0 0 0 0 0 0 0 0 0 0 0 0 0 0 0 0 0 0 0 0 0 0 0 0 0 0 0 0 0 0 0 0 0 0 0 0 0 0 0 0 0 0 0 0 0 0
0 0 0 0 0 0 0 0 0 0 0 0 0 0 0 0 0 0 0 0 0 0 0 0 0 0 0 0 0 0 0 0 0 0 0 0 0 0 0 0 0 0 0 0 0 0 0 0 0
0 0 0 0 0 0 0 0 0 0 0 0 0 0 0 0 0 0 0 0 0 0 0 0 0 0 0 0 0 0 0 0 0 0 0 0 0 0 0 0 0 0 0 0 0 0 0 0 0
0 0 0 0 0 0 0 0 0 0 0 0 0 0 0 0 0 0 0 0 0 0 0 0 0 0 0 0 0 0 0 0 0 0 0 0 0 0 0 0 0 0 0 0 0 0 0 0 0
0 0 0 0 0 0 0 0 0 0 0 0 0 0 0 0 0 0 0 0 0 0 0 0 0 0 0 0 0 0 0 0 0 0 0 0 0 0 0 0 0 0 0 0 0 0 0 0 0
0 0 0 0 0 0 0 0 0 0 0 0 0 0 0 0 0 0 0 0 0 0 0 0 0 0 0 0 0 0 0 0 0 0 0 0 0 0 0 0 0 0 0 0 0 0 0 0 0
0 0 0 0 0 0 0 0 0 0 0 0 0 0 0 0 0 0 0 0 0 0 0 0 0 0 0 0 0 0 0 0 0 0 0 0 0 0 0 0 0 0 0 0 0 0 0 0 0
0 0 0 0 0 0 0 0 0 0 0 0 0 0 0 0 0 0 0 0 0 0 0 0 0 0 0 0 0 0 0 0 0 0 0 0 0 0 0 0 0 0 0 0 0 0 0 0 0
0 0 0 0 0 0 0 0 0 0 0 0 0 0 0 0 0 0 0 0 0 0 0 0 0 0 0 0 0 0 0 0 0 0 0 0 0 0 0 0 0 0 0 0 0 0 0 0 0
0 0 0 0 0 0 0 0 0 0 0 0 0 0 0 0 0 0 0 0 0 0 0 0 0 0 0 0 0 0 0 0 0 0 0 0 0 0 0 0 0 0 0 0 0 0 0 0 0
0 0 0 0 0 0 0 0 0 0 0 0 0 0 0 0 0 0 0 0 0 0 0 0 0 0 0 0 0 0 0 0 0 0 0 0 0 0 0 0 0 0 0 0 0 0 0 0 0
0 0 0 0 0 0 0 0 0 0 0 0 0 0 0 0 0 0 0 0 0 0 0 0 0 0 0 0 0 0 0 0 0 0 0 0 0 0 0 0 0 0 0 0 0 0 0 0 0
0 0 0 0 0 0 0 0 0 0 0 0 0 0 0 0 0 0 0 0 0 0 0 0 0 0 0 0 0 0 0 0 0 0 0 0 0 0 0 0 0 0 0 0 0 0 0 0 0
0 0 0 0 0 0 0 0 0 0 0 0 0 0 0 0 0 0 0 0 0 0 0 0 0 0 0 0 0 0 0 0 0 0 0 0 0 0 0 0 0 0 0 0 0 0 0 0 0
Wind_Speed
9 7 3 1 2 3 2 0 3 3 4 4 6 8 12 12 8 7 2 5 10 12 11 10 10 9 8 7 6 6 5 4 4 3 3 3 3 3 3 3 3 4 4 3 3 4 4 4 5
6 6 2 2 2 2 1 2 4 4 2 2 5 9 12 11 11 8 4 5 9 11 10 10 10 9 8 8 7 6 6 5 4 4 4 3 3 4 4 4 4 4 4 4 3 3 3 4 4
6 5 2 2 3 1 2 3 4 4 2 3 5 10 9 7 8 6 5 7 10 12 12 11 11 10 9 8 7 6 5 4 4 3 2 2 3 4 4 4 5 5 5 4 3 3 3 3 3
4 3 3 4 5 1 4 4 3 3 4 3 5 10 9 8 6 8 7 9 11 12 12 10 11 10 9 8 7 5 4 4 3 2 1 1 2 3 4 5 5 6 5 5 4 3 3 3 3
2 2 3 4 2 2 4 4 2 3 4 6 9 11 10 11 11 11 8 8 10 10 10 10 10 9 8 7 6 4 3 3 2 1 1 2 3 4 5 6 7 7 6 6 5 5 4 4 4
2 3 3 2 0 1 3 2 2 4 5 5 8 11 9 10 9 9 8 7 8 8 9 9 10 9 8 7 6 5 3 2 2 2 3 4 5 6 6 6 7 7 7 7 6 6 6 6 5
2 3 4 2 1 2 3 1 2 3 5 5 5 8 10 10 8 8 8 6 6 6 6 6 8 8 8 8 7 4 2 1 2 3 4 5 6 7 7 7 7 7 8 8 8 7 8 7 6
2 3 5 2 2 2 3 2 2 3 4 4 3 6 10 12 9 8 7 6 5 5 4 4 4 5 5 6 7 5 3 3 3 4 5 6 8 9 9 8 7 8 8 8 9 9 9 9 7
3 2 3 2 1 2 4 3 2 2 4 4 7 10 13 15 11 8 6 5 4 4 3 4 3 4 2 1 6 4 5 5 5 6 7 6 5 4 6 7 7 8 9 9 9 10 10 10 8
3 2 3 1 2 1 3 3 4 3 4 4 9 12 14 12 10 9 7 6 5 4 3 3 3 3 2 1 3 0 0 1 2 0 1 2 3 2 3 3 7 8 9 10 10 11 10 7 4
4 4 3 1 1 1 2 2 2 2 2 4 10 13 12 10 9 8 6 5 5 4 3 3 2 3 2 2 2 0 0 0 1 2 2 2 2 2 1 1 3 5 7 5 5 6 5 4 4
6 5 3 2 2 1 0 1 1 0 1 5 10 13 11 9 8 5 5 5 5 5 3 3 3 3 4 4 2 1 1 1 1 1 3 2 2 2 2 1 1 1 1 2 2 2 4 4 4
9 5 3 2 1 2 2 2 2 2 2 5 10 11 9 8 7 5 4 5 5 5 4 4 3 5 4 3 2 2 2 1 1 1 1 2 1 2 3 2 1 2 1 1 1 3 3 3 3
6 4 3 3 4 4 3 4 4 3 4 7 9 9 9 7 6 6 5 4 5 5 4 5 3 3 2 2 2 2 2 0 1 2 2 2 2 2 2 3 2 2 2 1 1 3 2 2 3
5 4 5 6 5 4 4 6 6 5 5 7 9 9 8 7 6 5 5 4 5 5 5 6 3 2 4 5 4 2 2 3 3 2 3 3 3 2 2 3 3 2 3 2 2 2 1 2 2
6 5 5 5 6 5 4 5 4 6 7 7 8 8 7 7 7 6 5 4 5 5 5 6 3 3 4 3 2 2 3 3 2 2 3 5 5 4 3 3 3 3 3 2 2 1 1 1 1
6 6 6 5 7 6 6 5 4 7 7 8 8 8 10 9 8 7 7 5 5 4 5 6 5 2 4 2 1 0 2 1 1 2 3 4 5 5 4 2 2 3 3 3 3 2 1 1 2
3 4 2 2 4 5 6 6 5 7 9 8 8 9 10 10 10 8 7 6 6 4 4 7 5 2 3 2 1 1 2 2 2 2 3 4 3 4 4 3 3 3 2 3 3 3 2 1 2
4 2 2 1 2 4 7 8 7 8 9 8 8 9 9 9 10 10 9 7 6 5 4 7 4 3 3 2 1 2 2 1 2 2 3 2 3 4 4 3 4 3 2 3 3 2 3 2 1
5 4 4 2 1 4 8 10 9 10 11 10 9 9 9 8 9 10 10 8 6 6 4 5 5 4 4 3 1 1 1 1 1 1 2 3 3 4 5 4 3 3 2 3 3 3 2 2 2
6 4 3 4 5 7 9 10 9 7 7 7 7 6 6 8 9 12 11 9 7 6 6 4 5 5 5 3 1 1 1 1 1 1 1 1 1 2 3 4 4 3 2 2 3 3 3 2 2
4 2 3 5 6 6 7 6 6 5 6 6 6 5 5 4 6 10 10 9 8 7 6 5 5 5 5 3 2 1 1 1 1 0 1 1 2 2 2 3 4 3 2 3 3 3 2 2 2
1 2 6 8 8 10 10 8 3 4 5 6 7 7 6 5 6 8 10 9 8 8 6 5 6 5 5 3 4 1 1 1 1 1 1 1 1 1 1 2 3 3 2 3 3 3 2 2 2
2 7 10 10 8 8 8 4 2 2 3 3 4 6 6 6 6 7 9 8 7 7 7 5 6 5 5 3 3 3 1 0 1 1 0 1 1 1 2 1 2 2 3 3 3 3 2 1 2
6 7 4 3 3 4 4 3 1 5 6 4 2 2 6 7 7 8 9 9 8 8 7 6 6 6 5 5 4 4 3 2 3 1 0 2 1 1 2 2 2 2 2 2 2 3 2 2 1
7 7 4 3 4 6 6 3 4 7 6 3 1 1 1 5 7 8 9 9 9 9 8 7 7 6 6 5 5 4 4 3 1 1 1 1 0 2 2 1 1 1 2 3 2 2 2 2 2
6 6 7 6 9 9 5 1 5 6 6 4 3 4 4 4 6 8 9 10 9 9 9 8 8 7 7 6 5 4 3 3 1 1 2 0 0 1 1 1 1 0 1 1 2 2 2 2 2
8 8 5 4 5 6 7 5 3 4 3 2 2 4 5 5 6 8 8 9 10 9 9 8 8 7 7 6 4 3 2 2 2 1 0 1 1 2 1 2 2 0 1 1 1 2 2 2 1
9 8 6 5 6 6 6 4 3 3 3 1 1 2 5 6 7 7 8 8 9 9 9 8 8 7 6 6 5 5 4 3 3 3 2 1 1 1 2 2 1 1 1 1 1 1 1 2 2
6 7 7 6 6 6 7 5 0 4 3 2 1 1 3 5 7 8 8 8 8 9 9 9 8 8 7 6 5 5 5 4 4 3 3 3 2 2 2 1 0 1 1 1 1 1 1 1 1
Wind_Direction
171 173 182 192 229 233 250 153 85 36 32 24 32 54 68 55 52 84 107 71 93 106 111 104 96 92 89 88 87 86 82 78 69 59 53 39 13 356 353 353 345 341 342 345 353 359 5 9 9
183 168 191 219 239 235 157 107 89 77 47 6 52 63 75 70 73 90 92 81 99 104 103 97 94 88 85 84 82 80 78 75 69 60 47 37 15 351 335 332 330 326 326 329 333 337 345 352 354
188 200 222 223 243 257 117 113 118 108 65 31 71 66 57 64 76 91 116 111 98 95 95 94 92 89 85 82 81 79 76 72 70 64 46 26 9 344 329 326 322 320 322 324 323 319 319 322 333
176 206 239 240 263 10 116 125 127 128 99 60 76 77 70 58 83 112 120 111 102 100 99 99 95 91 87 84 81 80 75 65 63 51 17 322 310 307 306 303 298 294 294 295 300 292 294 296 298
201 231 244 250 275 87 105 136 148 87 82 68 78 92 90 88 103 112 108 103 106 110 112 115 111 105 98 89 78 70 62 54 47 21 327 293 277 270 274 276 275 274 273 277 286 285 282 283 290
217 239 256 275 207 107 98 97 89 88 87 85 102 105 103 115 111 109 105 98 102 111 120 127 131 129 122 108 92 75 54 25 349 324 296 280 272 264 257 260 262 264 266 266 269 273 275 275 281
242 262 268 283 135 108 99 88 43 90 79 61 69 103 124 127 122 119 111 102 100 102 111 131 146 142 138 129 118 108 90 14 316 293 283 279 273 265 257 251 252 257 260 262 260 257 260 260 262
239 293 297 331 113 121 117 116 74 69 92 73 59 98 134 136 136 126 125 129 125 114 112 110 121 121 137 147 144 153 173 210 242 253 261 267 269 261 251 246 238 246 253 255 257 256 255 252 247
250 262 292 317 100 130 137 144 116 88 97 89 69 83 121 136 143 143 147 148 134 120 124 116 103 98 103 170 135 174 196 211 237 239 241 259 262 250 234 226 222 237 247 252 255 253 250 248 240
220 254 286 308 49 127 159 168 153 162 134 124 104 107 125 145 156 162 169 157 143 139 123 105 109 115 123 47 99 116 117 173 243 325 250 256 276 274 274 194 223 237 245 249 250 251 248 243 231
223 239 272 257 106 242 154 162 186 159 164 153 141 139 147 160 168 170 164 137 126 116 91 79 75 115 108 101 73 28 27 3 352 18 343 323 324 315 289 197 217 230 237 237 238 239 236 221 211
248 253 270 333 68 280 153 200 186 113 66 121 134 143 156 171 174 169 152 126 122 103 90 68 22 46 64 63 14 257 91 53 16 22 0 1 342 322 336 320 292 261 238 205 220 228 237 227 217
235 247 240 268 221 248 232 224 241 200 147 128 134 147 162 175 171 155 135 130 126 116 120 89 43 35 40 73 282 18 65 38 30 56 349 8 352 337 338 306 296 291 309 274 254 248 238 232 234
227 217 234 242 223 222 224 236 234 213 165 149 153 162 175 174 173 157 152 153 137 130 127 103 68 50 23 37 20 33 9 82 45 50 2 23 18 341 326 322 333 333 312 289 274 266 250 233 234
231 226 232 224 224 217 227 238 224 215 183 172 176 178 173 172 173 181 159 159 136 132 120 107 106 76 54 37 9 2 348 37 40 35 11 17 14 345 351 345 349 334 316 317 305 299 287 265 257
215 228 239 225 209 200 229 259 212 188 190 194 194 180 172 176 188 185 156 154 127 124 113 108 86 75 79 66 359 346 23 35 16 23 33 11 1 0 8 357 344 325 326 329 303 278 301 290 278
216 226 223 203 200 194 215 262 191 181 196 204 200 188 179 184 197 178 155 154 122 120 120 117 97 72 88 85 233 47 45 45 13 45 47 11 357 1 5 341 329 341 345 337 321 350 318 300 293
238 257 261 205 178 219 232 255 227 197 209 215 202 200 191 191 187 171 151 139 125 132 131 114 116 121 93 92 354 63 60 5 44 59 58 19 346 2 352 329 355 358 354 341 336 336 322 293 275
279 294 286 278 178 238 255 258 248 214 206 216 213 208 203 193 177 158 149 142 148 155 145 122 133 128 107 79 28 31 43 355 50 58 64 5 360 2 343 351 347 355 352 345 338 334 331 312 288
275 298 290 294 251 259 271 269 255 225 208 207 219 212 204 187 168 151 149 148 164 157 146 137 135 113 103 101 55 147 86 305 102 72 80 31 18 6 351 360 346 348 339 352 345 346 347 323 330
240 254 275 312 302 278 275 270 257 223 197 193 208 228 221 187 175 158 157 155 162 158 151 145 127 132 119 130 89 30 16 289 51 46 80 53 41 21 1 342 339 337 351 356 341 5 359 332 327
251 311 298 284 289 286 273 287 267 202 171 184 192 211 229 191 163 152 155 158 162 158 150 148 136 125 123 133 102 13 287 50 68 38 91 294 98 54 15 340 337 339 358 1 354 16 347 347 342
235 280 283 276 275 279 271 274 282 150 173 181 181 192 204 189 164 155 154 157 159 150 143 141 131 129 128 127 133 224 335 28 35 16 60 334 123 151 97 4 340 340 1 14 7 4 359 5 5
291 266 259 252 259 269 267 276 302 112 98 106 150 175 182 179 164 154 148 145 144 136 137 138 137 135 135 155 174 198 158 221 277 285 41 308 214 143 97 34 334 350 16 15 3 346 352 6 15
241 264 281 277 245 276 280 261 233 84 77 64 76 151 168 168 168 156 148 149 146 145 149 154 154 155 164 183 204 196 177 211 234 202 156 278 307 96 80 32 339 19 14 352 357 335 335 356 22
228 254 270 307 307 301 281 250 116 106 103 102 101 82 121 164 166 160 156 155 155 157 160 170 169 169 172 193 209 199 179 198 198 148 259 256 21 83 80 15 328 26 19 352 358 329 341 6 7
265 251 277 286 286 291 296 322 125 123 133 152 181 178 193 186 162 161 159 160 162 167 171 178 175 177 179 196 201 200 184 162 146 206 241 207 55 90 64 295 278 166 120 29 358 339 358 356 13
272 303 305 288 302 304 311 326 50 98 87 121 183 189 193 181 169 169 164 168 170 173 175 180 182 185 180 188 197 175 167 156 162 244 323 23 350 93 247 280 296 233 151 164 117 337 341 332 330
217 241 260 277 277 288 304 316 346 66 75 37 292 197 180 172 172 171 167 172 172 170 172 178 184 188 178 183 189 171 176 186 192 196 178 209 252 205 244 238 278 12 20 33 126 243 338 342 337
275 273 277 281 291 301 297 291 106 119 133 176 264 256 187 170 169 168 167 170 173 175 177 181 186 184 174 179 186 176 167 184 206 192 188 209 207 202 248 252 212 59 9 342 11 318 326 285 324